Theta_e
308 310 311 311 314 317 318 318 313 313 313 306 308 310 311 315 315 315 317 321 329 337 333 331 329 329 338 337 336 337 340 340 339 336 335 345 348 346 348 347 348 347 348 350 349 345 344 341 337 335 332 329 328 327 327 327 327 326 326 327 328 329 333 334 334 333 333 335 338 340 341 341 340 338 335 334 334 333 334 333 335 338 339 341 342 341 341 340 341 340 338 339 338 338 339 339 339
312 311 310 312 317 318 318 317 311 310 310 305 309 311 313 316 315 315 317 321 332 338 338 335 333 336 339 340 340 338 342 345 345 344 344 348 347 347 347 346 349 348 349 350 349 346 345 341 337 335 332 330 328 327 327 327 327 327 327 326 326 326 328 329 330 332 335 338 339 340 339 337 335 333 333 334 335 335 336 335 334 334 334 336 339 341 340 340 339 338 338 338 337 338 338 339 338
312 311 313 315 317 317 318 317 310 307 307 305 308 314 317 316 319 322 324 327 337 340 340 339 338 339 339 340 340 338 343 346 344 344 345 347 347 346 346 346 348 348 348 350 349 347 346 341 337 335 333 331 328 327 327 328 328 327 327 326 326 327 328 329 332 334 337 339 339 337 335 332 331 332 334 336 337 337 337 335 334 332 330 333 337 339 339 339 338 338 338 337 337 338 338 338 337
311 313 315 317 317 315 317 315 312 308 306 306 307 319 325 323 329 330 331 336 339 338 341 341 340 339 339 342 340 341 345 345 345 345 345 347 347 345 345 346 347 347 347 349 349 348 347 342 338 336 333 331 329 328 327 328 328 327 328 327 326 327 328 331 333 336 337 337 336 333 330 329 331 333 334 335 336 338 337 335 333 331 330 335 339 338 338 338 338 338 338 337 337 337 337 337 336
312 314 315 318 318 316 317 316 314 309 307 308 308 323 331 329 333 332 334 338 337 337 340 341 341 339 342 345 343 343 345 345 346 346 347 347 347 345 344 345 346 347 346 347 348 348 347 343 339 336 334 332 330 328 328 328 328 328 327 327 326 326 327 331 334 335 333 331 331 330 329 329 331 333 334 335 335 336 337 336 334 332 333 337 339 338 338 337 338 338 337 337 337 337 337 336 335
313 315 316 318 318 316 316 312 311 309 312 313 312 323 330 331 335 333 335 335 335 336 338 340 341 341 344 346 344 345 346 346 346 346 348 347 346 345 343 343 344 346 346 346 346 348 347 344 341 337 335 333 331 329 328 328 328 329 328 327 326 325 326 328 330 329 327 326 326 326 328 330 331 331 333 335 336 337 338 338 335 333 334 336 336 337 337 337 338 337 337 337 337 336 336 335 335
315 316 317 316 317 316 314 310 310 311 314 315 316 323 327 329 330 329 334 333 335 337 338 340 340 343 346 344 344 345 346 347 346 347 348 347 346 344 342 342 344 345 345 345 344 346 347 345 342 339 336 333 331 329 328 328 329 329 329 328 327 326 325 326 327 326 326 325 326 326 327 329 330 332 334 335 336 337 338 338 336 334 334 334 333 335 337 337 337 337 337 337 337 336 335 335 335
315 317 317 315 316 314 313 312 312 315 314 314 318 322 324 325 323 324 330 332 334 336 339 339 339 343 345 344 345 346 347 348 348 348 348 347 345 343 343 343 344 344 344 344 344 345 345 345 343 341 338 334 332 330 329 329 329 329 329 329 329 328 327 327 327 327 328 328 328 328 330 331 332 334 335 335 335 337 337 337 336 333 332 332 331 333 335 337 337 337 337 336 336 334 333 334 333
316 317 316 313 316 314 311 311 314 317 316 315 318 320 321 321 319 321 326 330 333 335 339 339 338 340 343 345 346 345 348 349 349 349 348 347 345 343 341 342 343 343 343 343 343 344 344 345 345 342 340 337 334 332 329 329 329 330 330 330 330 329 329 329 329 329 329 330 330 331 332 333 334 335 335 335 335 336 337 336 336 333 332 332 331 331 334 336 335 335 335 336 335 331 331 331 330
315 316 315 314 314 311 308 310 314 315 316 315 316 318 319 318 318 320 322 326 330 334 336 337 337 340 343 346 346 346 348 349 349 348 347 346 344 341 341 342 343 343 343 343 343 343 343 343 345 344 342 339 337 335 331 330 331 331 331 331 330 330 331 331 331 331 331 332 332 333 334 334 335 335 336 336 335 336 336 336 336 334 332 334 334 331 333 335 334 335 334 335 333 330 330 330 331
315 314 315 313 310 308 307 310 312 315 315 315 316 316 316 317 316 317 319 323 326 332 335 335 339 341 343 345 346 348 349 349 349 347 347 346 343 341 342 342 343 343 343 344 343 342 342 342 343 344 344 342 340 338 334 333 333 332 331 331 331 331 331 331 333 332 333 333 333 335 334 334 335 336 338 337 336 335 335 335 336 335 333 335 335 332 333 334 335 335 334 334 333 332 331 331 332
315 314 313 311 309 309 310 311 312 314 314 314 316 315 315 315 316 316 319 322 325 330 333 335 336 339 343 344 345 347 349 348 348 347 345 344 343 342 342 343 343 344 343 343 343 341 342 342 341 343 344 344 343 340 338 337 334 331 331 331 331 332 333 332 332 333 333 334 334 335 335 334 334 337 337 337 336 334 334 335 336 336 334 333 334 332 334 335 336 335 334 334 333 333 331 331 330
314 315 313 310 312 312 312 311 312 314 313 314 315 315 315 315 316 316 317 319 323 328 331 334 334 336 341 343 345 347 347 347 348 346 345 344 342 341 341 342 342 343 342 342 343 341 341 342 341 342 342 343 344 342 340 338 334 331 331 332 333 333 334 333 332 333 334 335 335 335 335 334 335 337 336 335 335 333 332 333 335 336 335 333 333 333 335 336 336 335 334 334 333 332 331 330 329
314 314 313 312 314 314 312 311 312 311 311 315 315 315 315 315 317 317 316 317 321 327 331 334 332 336 341 344 345 345 346 347 347 346 345 343 342 341 341 341 342 343 342 342 343 343 343 342 343 343 343 342 344 344 341 340 337 334 331 332 333 334 334 334 334 334 335 335 335 335 335 335 336 337 336 336 335 334 332 332 334 336 336 334 332 333 335 336 335 335 334 333 333 332 331 331 329
313 314 314 313 313 312 312 312 312 311 311 316 315 314 315 316 319 318 318 316 321 330 333 335 333 334 336 340 343 343 346 347 346 346 344 343 342 341 341 342 342 343 342 342 342 343 343 342 344 344 344 344 343 344 342 340 339 337 334 332 333 334 333 334 336 335 336 335 335 335 335 335 336 336 337 337 336 334 333 332 333 334 336 335 332 332 333 335 334 334 333 332 332 331 331 331 329
313 313 313 313 311 310 312 313 313 311 313 316 314 315 314 316 320 321 320 318 325 332 330 333 334 334 333 334 341 343 347 347 346 345 344 343 343 342 342 343 343 342 342 341 341 341 341 342 344 344 345 345 343 344 342 340 341 340 338 334 334 335 333 334 337 337 337 336 336 336 335 336 337 337 338 338 336 335 334 333 332 332 335 336 334 333 332 332 332 331 332 332 331 330 330 331 327
313 313 313 312 311 311 312 313 313 312 314 316 314 316 314 316 321 323 323 321 326 330 330 335 334 333 335 338 343 345 347 347 346 345 345 343 343 342 343 343 342 342 340 340 340 340 340 340 342 344 345 345 342 342 341 341 342 341 340 337 336 335 333 335 337 337 338 337 337 336 336 338 339 338 338 337 337 336 335 334 332 331 332 334 336 335 333 331 330 330 330 329 329 329 328 328 324
312 313 313 311 311 312 313 313 313 313 315 316 315 315 314 315 321 326 325 321 326 330 333 337 334 335 341 343 344 345 347 347 346 345 344 344 343 343 343 343 342 341 340 339 339 339 339 339 339 341 343 344 343 342 341 341 341 341 340 339 338 336 336 337 337 337 338 337 336 337 338 339 339 338 338 337 337 337 336 335 333 330 330 331 334 335 334 333 331 328 328 327 327 326 325 325 325
312 313 312 311 313 314 313 313 313 313 314 315 315 314 313 315 321 326 326 324 327 331 334 337 336 337 341 345 344 345 346 347 346 345 345 344 344 344 343 342 342 340 339 338 338 338 338 338 338 339 340 342 343 343 342 342 342 341 340 341 340 339 339 338 339 339 338 337 338 339 339 338 338 338 339 337 337 336 336 334 334 332 330 329 329 331 333 335 334 330 328 327 327 325 324 327 329
312 313 311 312 313 313 313 313 313 313 314 314 314 314 314 318 322 326 327 328 330 331 333 336 338 338 340 342 343 345 346 346 346 345 345 344 343 343 343 342 341 340 339 338 338 338 338 339 338 338 339 339 341 342 342 341 341 341 340 341 340 340 340 339 340 339 338 338 337 337 338 338 338 338 338 336 335 336 334 334 334 333 331 329 327 328 330 332 334 333 330 329 328 327 327 329 328
312 311 312 313 313 312 312 313 313 313 313 313 314 313 315 317 321 324 328 329 328 329 333 335 338 339 341 341 342 346 346 346 346 345 344 343 343 342 342 342 341 340 338 338 338 339 339 339 338 337 338 337 338 339 341 342 341 340 339 340 340 340 340 340 340 339 339 339 337 336 337 338 338 338 337 335 336 336 335 335 336 333 334 332 327 329 331 330 331 332 332 330 330 329 329 329 328
311 311 312 312 312 312 312 313 312 312 313 313 314 313 314 314 318 324 328 329 327 329 334 335 337 339 340 341 341 344 344 344 345 344 343 343 342 342 342 341 341 340 339 339 339 339 339 338 337 337 337 337 336 337 338 339 341 340 340 340 340 339 339 339 338 338 339 338 338 338 338 339 338 337 337 336 337 337 336 336 336 335 336 335 331 331 332 331 330 332 332 332 331 331 329 329 330
311 311 312 312 312 312 312 312 312 313 312 312 313 313 313 313 316 322 327 327 325 328 331 335 338 338 341 342 341 341 340 341 343 343 342 342 342 342 342 341 341 339 339 339 339 339 338 337 336 337 337 337 337 336 336 337 338 339 340 340 340 340 339 339 338 338 338 338 338 339 339 338 337 336 336 337 337 338 337 336 335 335 335 335 334 333 333 331 329 330 331 331 330 330 329 329 329
310 311 311 311 311 312 312 312 312 313 312 313 313 313 313 313 315 322 326 327 325 325 330 335 339 340 342 341 339 341 340 339 342 341 341 341 341 341 341 341 340 339 339 339 339 338 337 336 336 336 336 337 337 336 336 336 335 337 338 339 339 340 339 339 338 338 338 338 338 338 338 338 337 337 336 337 337 338 337 336 335 335 335 335 336 335 332 330 329 329 329 329 330 329 329 329 329
310 310 311 311 311 312 312 312 313 313 312 313 313 313 313 314 316 321 325 327 325 326 331 335 338 339 340 339 339 340 339 340 341 341 341 340 340 341 340 339 339 340 340 340 339 337 336 335 335 335 336 336 336 336 335 335 335 335 336 336 337 338 338 338 338 339 337 338 338 338 337 338 337 337 337 337 337 338 337 337 336 336 335 335 336 334 330 329 329 329 329 329 329 329 328 329 329
310 310 311 312 312 313 313 313 313 312 313 313 313 313 314 314 315 319 324 327 327 330 334 336 337 338 339 339 339 339 338 339 340 341 341 340 340 340 339 339 340 341 340 340 339 336 335 334 334 334 335 334 335 335 335 335 335 335 335 335 335 336 337 336 336 336 337 338 338 337 337 337 337 337 338 337 337 337 335 334 335 336 337 336 335 333 330 329 329 329 329 329 329 328 327 328 328
311 312 311 312 313 313 313 312 313 312 312 313 313 314 315 315 316 318 324 327 329 332 335 337 337 338 338 338 339 339 339 338 339 340 340 339 339 339 339 341 340 339 339 339 338 336 335 333 332 332 334 335 334 333 334 334 334 334 335 335 335 337 337 335 334 334 335 337 337 337 337 337 336 337 337 337 336 335 334 333 334 334 336 336 335 332 331 330 329 329 328 327 327 326 326 328 328
312 312 312 312 313 313 313 312 313 313 313 312 313 315 315 315 316 318 322 326 330 331 335 336 337 339 338 338 338 338 338 338 338 338 338 339 338 339 341 341 338 338 338 338 336 336 336 333 330 331 334 334 333 332 333 334 333 333 335 335 336 338 338 336 336 335 334 336 337 337 336 336 336 335 336 334 333 334 335 334 333 333 334 334 333 332 331 331 330 328 326 326 326 326 327 328 328
312 312 312 313 313 313 313 313 313 313 313 312 314 314 314 315 316 318 322 325 329 331 334 336 338 339 339 338 337 337 338 339 339 338 339 339 340 340 340 339 338 338 336 337 337 336 337 336 333 334 335 334 333 333 332 332 333 333 334 334 335 337 338 337 336 336 335 335 335 335 335 336 334 334 334 333 333 335 335 334 334 333 333 333 332 331 331 331 331 329 326 326 326 326 328 328 329
312 312 312 313 312 312 313 313 312 314 312 311 313 311 312 316 315 319 322 324 328 330 333 334 337 339 338 339 338 338 339 340 340 340 340 339 340 340 338 338 338 336 334 337 338 337 337 338 337 337 336 335 334 334 332 332 333 332 332 332 333 334 335 335 336 336 335 333 332 334 335 334 333 333 333 333 334 335 334 334 334 333 333 333 333 330 330 331 331 330 326 326 327 326 328 329 329
313 312 312 312 310 310 314 314 313 314 312 312 313 310 312 315 315 320 323 324 327 329 330 333 336 339 339 340 339 339 340 340 340 338 339 339 339 339 337 338 340 337 334 336 337 336 337 338 338 337 335 335 335 334 333 333 333 332 331 331 331 331 331 331 333 334 334 332 331 331 332 333 333 333 333 332 333 333 333 333 333 334 333 334 334 330 328 330 331 331 328 327 327 327 328 329 329
313 311 310 311 310 311 314 315 315 315 313 313 314 310 313 315 314 319 322 323 326 327 329 333 335 338 339 340 339 338 338 337 336 336 338 338 337 337 337 338 339 339 337 336 336 337 338 338 337 336 334 335 335 334 334 333 333 332 330 329 330 329 328 328 328 330 332 332 332 331 330 331 331 331 332 333 333 333 332 333 334 334 333 334 334 331 329 330 331 331 330 329 329 329 329 329 330
313 312 309 310 310 310 313 314 316 315 314 314 313 312 314 315 314 318 321 322 324 325 327 332 336 337 337 338 338 338 336 335 333 334 336 336 335 336 336 337 337 338 338 337 337 338 338 337 337 336 336 335 334 334 334 333 332 330 329 328 327 327 326 327 327 327 328 329 330 330 329 329 330 330 331 332 332 332 332 333 333 334 333 334 334 333 331 331 331 331 332 331 330 331 330 330 332
311 312 311 311 310 311 311 313 316 315 315 315 314 314 314 316 315 317 321 322 323 324 326 331 334 335 336 336 336 336 336 334 332 332 333 333 333 333 335 336 336 337 338 337 337 337 337 337 337 337 336 335 333 334 334 332 330 329 328 327 326 326 326 327 326 326 327 327 327 328 328 329 330 331 330 330 331 331 332 332 333 333 333 333 334 334 333 332 333 333 334 334 332 333 333 333 333
310 311 311 311 311 311 311 313 315 316 315 315 315 315 315 316 314 315 320 321 323 324 325 330 333 334 335 335 334 335 335 334 333 331 332 332 332 331 332 334 335 335 335 336 337 337 337 337 337 337 336 334 334 333 331 329 328 327 326 325 325 325 325 326 326 326 326 326 327 327 328 328 329 330 329 330 330 330 331 332 332 333 333 333 333 334 333 333 333 332 333 333 331 331 333 333 333
313 312 312 311 310 311 312 314 316 317 315 315 315 315 315 316 315 315 318 322 324 324 327 330 331 331 333 334 333 333 334 334 333 332 331 331 331 330 330 331 333 334 333 334 335 336 337 336 336 336 335 334 333 331 328 326 325 324 323 323 324 324 324 325 325 325 325 325 325 326 326 327 327 327 327 328 329 329 330 330 331 332 333 333 333 333 333 332 332 332 331 332 331 331 331 332 332
315 314 312 311 310 311 314 316 316 317 316 315 316 316 316 316 316 316 317 320 323 325 327 328 328 328 330 331 332 334 335 333 333 332 330 330 330 329 328 329 330 332 332 332 334 335 336 333 333 334 333 332 330 328 327 325 322 322 321 322 322 322 323 324 324 325 325 325 325 324 325 326 325 325 325 325 326 327 328 328 328 329 331 332 332 332 332 332 331 332 332 332 332 332 333 332 332
316 314 312 311 311 311 315 317 316 317 316 315 317 316 316 317 317 316 316 318 321 324 326 327 326 326 326 328 331 332 333 331 329 330 330 329 329 329 328 328 329 331 331 331 332 334 334 332 331 333 332 330 329 327 326 324 321 321 321 321 320 320 321 323 323 324 324 324 324 324 324 324 324 324 324 324 324 324 325 326 327 328 329 330 331 331 330 330 331 331 332 332 331 332 333 332 331
316 314 312 311 312 312 316 318 318 317 315 314 317 315 315 318 318 318 316 315 318 322 324 326 326 325 325 325 328 331 333 332 329 328 329 329 329 328 327 327 328 330 330 330 331 332 332 331 331 332 330 329 329 327 325 323 322 322 321 320 320 320 321 323 323 323 323 323 322 321 321 321 322 323 323 323 323 322 323 324 325 326 327 328 330 330 329 330 330 330 331 331 331 331 332 331 331
316 314 312 311 313 313 312 316 319 319 318 316 316 315 315 318 318 318 318 317 320 321 321 323 324 324 325 324 325 327 330 334 331 328 328 328 328 328 327 327 328 329 330 329 329 331 330 329 330 332 329 328 329 327 325 324 322 321 323 323 322 321 322 323 323 322 322 321 320 320 319 320 322 322 322 321 321 321 322 323 324 325 325 326 327 328 329 330 330 330 331 332 331 331 331 330 330
316 317 314 313 315 314 312 316 318 319 319 319 316 313 312 316 317 318 319 318 319 319 318 319 320 321 323 324 325 325 328 331 332 331 329 328 328 327 327 327 327 329 329 329 329 329 329 328 330 331 329 328 328 326 325 324 321 320 322 322 321 320 321 322 322 321 320 319 319 320 320 321 322 322 321 320 320 320 320 321 322 323 324 324 324 325 325 327 328 329 330 330 330 329 331 330 329
314 316 316 315 316 316 316 317 316 314 315 318 316 310 310 314 316 317 318 317 316 317 317 317 317 318 318 320 322 324 325 327 330 331 331 329 328 327 327 326 327 328 329 329 328 328 327 327 329 329 329 328 327 326 325 322 320 320 320 319 319 319 320 320 319 319 320 319 319 319 320 321 322 321 321 320 320 319 319 320 321 321 322 322 322 323 323 323 324 326 327 328 328 329 329 329 329
312 316 316 316 317 317 317 316 314 311 311 317 317 311 309 312 315 317 318 317 316 317 317 316 317 317 316 317 318 320 322 325 326 328 330 330 330 328 327 327 326 326 327 328 328 327 326 326 328 328 327 327 326 325 324 321 320 321 319 317 318 317 317 318 319 320 319 320 320 319 320 320 321 321 321 321 320 320 319 319 319 319 320 320 320 321 321 321 321 322 324 324 325 326 326 327 327
314 319 318 316 317 318 318 316 314 312 313 316 317 313 310 310 313 318 317 317 317 317 318 316 316 316 317 317 316 318 320 322 324 326 327 329 330 329 328 327 326 325 326 327 327 326 326 327 327 327 327 326 326 325 322 321 320 320 319 318 316 316 317 318 319 320 320 319 320 319 319 320 320 321 321 320 320 320 319 319 319 319 319 319 319 320 320 321 320 321 322 322 322 323 323 324 324
316 320 318 316 317 318 317 315 313 314 314 312 313 314 312 310 312 317 316 315 316 317 317 317 316 316 316 317 317 317 318 319 321 322 325 327 329 330 328 327 325 324 325 327 326 325 325 327 325 325 326 325 326 323 321 321 320 319 319 318 316 316 318 317 318 319 320 320 320 319 319 320 320 321 320 320 319 319 318 317 317 317 316 315 315 316 317 318 319 319 320 320 321 321 321 321 321
317 317 316 316 317 317 316 314 312 314 313 311 312 314 312 310 312 315 315 314 315 317 316 316 317 316 317 318 318 318 317 316 317 317 321 324 328 329 328 328 325 324 325 326 325 324 325 326 325 325 326 325 325 322 320 321 321 320 320 318 317 317 316 316 317 319 320 320 320 320 319 319 320 320 320 319 318 316 315 313 313 313 312 312 312 313 314 315 315 316 317 318 318 319 319 319 319
316 316 315 315 315 315 315 313 312 312 312 312 313 314 313 310 310 313 315 315 316 317 316 317 318 317 317 318 317 316 316 316 314 315 316 319 324 327 328 328 326 325 325 325 324 323 324 325 324 325 325 324 325 322 320 321 322 321 321 319 318 317 317 317 318 320 320 320 320 319 319 319 319 319 318 317 316 314 313 312 312 311 311 311 311 312 312 313 313 314 314 315 316 317 317 317 317
315 316 314 313 314 313 313 312 313 312 312 313 313 313 313 311 310 313 316 316 316 317 317 318 318 317 317 317 316 315 315 315 315 315 315 316 320 325 327 327 326 326 325 325 324 323 323 325 324 325 324 324 325 323 320 321 322 321 321 321 320 319 318 317 318 320 319 320 320 319 318 319 319 318 317 316 315 314 314 314 313 312 312 312 312 311 312 312 312 313 313 314 314 315 315 315 316
315 315 313 313 313 313 312 311 311 311 311 313 313 313 313 311 312 315 317 316 316 316 316 316 316 316 317 316 315 315 315 315 315 315 315 316 319 325 327 326 325 326 326 324 324 323 323 324 324 324 324 324 324 323 321 321 323 322 321 323 322 321 320 317 317 319 319 319 319 319 318 318 318 318 317 316 315 314 314 315 315 313 313 312 311 311 311 312 312 312 313 313 313 313 314 314 314
314 312 312 313 312 313 313 311 310 310 312 314 313 313 312 310 313 317 316 315 315 315 314 314 314 315 316 316 315 316 315 315 315 316 317 317 321 325 326 325 324 326 325 324 323 323 322 323 323 323 324 325 324 324 323 322 322 322 322 323 323 322 322 319 317 318 319 318 319 319 318 317 318 318 318 317 315 314 315 315 315 314 313 312 311 311 311 312 312 312 312 312 312 312 312 312 313
313 312 312 312 312 313 313 311 310 310 311 314 315 314 312 310 314 316 315 314 313 313 312 313 313 314 315 316 316 317 317 316 316 318 319 320 323 325 325 324 325 325 325 324 323 323 323 323 323 323 324 324 324 323 323 322 322 322 322 323 323 323 323 321 318 318 320 319 318 319 317 317 318 318 318 318 315 314 315 316 315 314 313 312 311 311 311 311 311 311 312 312 312 312 312 312 312
313 313 311 311 311 312 312 313 313 311 311 313 313 312 312 313 315 315 313 313 312 311 311 312 313 314 316 317 317 318 317 317 317 318 320 322 324 325 324 324 325 324 324 324 323 323 322 322 322 322 323 324 323 322 322 322 322 323 323 323 323 323 323 322 320 319 320 320 319 318 317 317 317 318 319 319 317 316 316 316 316 315 314 313 312 312 312 311 311 312 312 312 312 312 312 312 312
312 311 310 312 313 312 312 314 314 311 311 312 311 311 312 312 314 314 313 312 311 311 311 311 313 314 316 317 317 318 318 317 317 317 319 321 323 324 324 324 324 323 324 323 323 323 322 322 322 322 322 323 323 322 322 322 322 323 324 323 323 323 322 322 322 322 321 319 318 318 318 318 318 318 320 320 318 317 316 316 316 315 315 314 313 312 312 312 311 312 312 312 312 312 312 312 311
311 311 311 312 312 312 312 313 313 312 312 312 311 312 311 311 313 314 313 312 312 311 311 312 314 314 315 316 317 317 318 318 318 317 317 320 323 324 323 323 323 323 323 323 323 322 322 322 322 322 321 321 321 321 322 322 322 323 324 323 322 322 322 323 323 323 322 319 318 318 318 319 319 319 320 320 319 317 317 317 316 316 315 314 312 312 311 311 311 311 311 311 311 311 311 310 310
310 310 311 311 311 312 311 312 313 312 313 313 311 312 311 309 312 314 313 313 313 311 311 311 312 313 314 315 316 317 318 318 318 317 317 318 320 322 322 322 322 322 323 322 322 322 322 323 323 322 321 320 320 320 321 322 322 322 323 323 323 322 322 323 323 324 323 321 319 318 318 319 319 319 319 319 319 318 318 317 317 316 315 314 313 312 311 311 311 311 311 311 311 310 310 309 309
310 310 311 311 311 311 311 312 312 311 312 313 312 311 311 310 312 314 313 314 313 312 312 312 312 313 314 315 316 316 317 317 317 317 316 317 318 320 320 321 321 322 322 322 321 321 321 322 322 322 321 321 320 320 321 321 322 322 322 323 323 322 322 322 323 324 323 322 320 319 318 318 319 318 318 318 318 318 318 317 317 316 315 314 313 312 312 312 312 311 311 310 310 309 309 309 308
311 310 310 311 311 312 311 311 311 311 311 312 313 312 311 313 315 315 314 314 313 312 313 312 312 313 314 315 316 316 316 315 316 315 315 316 318 318 318 319 319 320 321 321 321 321 321 321 320 320 321 321 321 321 321 321 320 320 322 322 322 322 322 322 323 323 323 322 321 320 320 319 319 318 318 318 318 318 318 318 317 316 316 314 313 313 312 311 312 311 310 309 309 308 308 308 308
311 311 311 311 311 311 311 311 310 311 311 311 312 312 311 314 317 315 314 314 313 312 312 312 312 313 314 314 315 315 314 314 314 314 314 315 316 316 316 317 317 318 318 319 320 321 321 321 321 321 321 321 321 321 321 321 320 320 320 321 321 321 322 322 323 323 323 322 321 321 320 319 320 319 318 318 317 318 318 318 317 317 315 315 313 312 312 311 311 310 310 309 309 308 308 308 308
Wind_Speed
2 3 3 3 3 5 6 5 4 3 5 6 5 4 3 2 3 4 3 2 2 2 1 1 3 6 3 2 6 3 7 3 2 0 1 5 10 15 15 18 21 20 20 21 22 23 22 23 23 22 23 22 22 22 21 21 21 20 20 20 19 19 19 19 19 19 19 19 18 17 17 16 16 16 16 15 15 14 13 13 12 12 12 12 12 12 12 12 11 10 9 9 10 10 11 10 10
2 3 3 3 5 6 3 3 5 3 6 6 6 3 3 3 3 5 1 2 2 4 1 2 6 6 1 1 4 4 5 10 9 6 6 11 14 15 17 19 19 20 20 21 21 22 21 23 24 23 23 22 22 22 22 22 21 21 20 20 19 19 19 19 19 19 19 18 18 18 18 18 17 17 16 15 15 15 14 13 13 12 12 12 13 13 13 12 11 11 10 10 10 10 11 10 10
3 4 4 5 6 6 2 3 6 5 6 7 4 3 2 3 3 1 2 2 4 4 3 5 6 5 3 4 5 5 4 8 10 9 9 13 14 15 19 18 18 19 19 21 21 21 21 23 24 23 23 22 22 22 22 22 21 21 20 20 20 20 20 19 19 19 19 19 19 18 18 18 17 17 16 15 15 14 14 13 12 12 11 12 13 13 12 12 12 11 11 10 10 10 10 10 10
3 4 6 6 5 5 4 5 5 6 6 6 3 5 2 2 2 3 2 4 5 3 4 6 6 2 3 3 4 3 6 7 9 9 8 12 14 17 19 18 18 17 18 20 20 20 20 23 24 23 23 22 22 22 22 22 21 21 20 20 20 19 20 20 19 19 19 19 19 18 18 18 18 17 16 15 15 14 13 13 12 11 12 12 13 13 13 13 13 12 12 11 11 11 10 9 9
4 5 6 7 4 2 4 4 4 7 6 5 3 4 4 3 4 4 6 5 3 2 3 4 4 3 2 4 3 2 6 7 8 9 11 13 16 19 19 19 17 17 16 18 18 18 20 23 24 23 23 23 22 22 22 22 21 21 20 20 20 19 19 19 20 20 20 20 19 18 18 18 18 16 15 14 14 13 12 12 11 11 12 13 13 13 14 14 14 13 13 12 11 11 10 9 9
4 6 6 7 3 2 4 5 5 7 3 3 4 4 5 5 6 6 6 4 3 2 4 4 1 5 3 5 5 4 4 5 8 10 13 16 18 18 19 19 17 17 16 16 16 16 20 23 23 23 23 23 23 22 22 22 22 21 21 20 20 19 19 19 20 20 20 19 19 19 18 18 17 16 15 14 13 12 11 11 10 11 12 13 13 13 14 14 14 14 14 13 12 11 10 9 9
6 6 6 6 3 2 6 6 6 5 2 0 4 3 5 5 5 2 4 5 5 4 4 3 2 5 4 4 4 6 3 5 8 11 15 18 19 18 18 18 17 17 16 15 14 16 20 21 22 23 22 22 22 22 22 22 22 21 20 20 20 20 19 19 19 19 19 18 19 18 18 17 16 15 14 14 13 12 12 11 11 10 11 12 13 13 13 13 14 14 14 13 12 11 11 10 9
6 5 2 5 4 4 7 6 5 4 2 1 4 1 3 3 3 3 2 4 4 4 5 3 5 4 4 3 2 6 5 7 10 15 19 19 19 19 17 17 18 17 15 14 14 15 17 19 21 21 22 22 21 22 22 22 22 21 20 19 19 19 19 19 19 18 18 18 18 17 17 16 15 14 14 13 13 12 11 11 11 10 10 11 12 13 13 12 13 14 13 13 13 12 11 9 9
7 5 2 5 5 4 6 6 4 3 2 3 4 3 1 3 4 4 4 4 3 4 6 6 5 4 5 5 4 7 7 10 14 18 19 18 18 18 17 16 17 17 16 15 14 15 15 17 19 20 21 21 21 21 21 22 22 21 20 19 18 18 19 18 18 18 17 17 17 16 16 15 14 14 14 13 13 12 11 11 11 10 10 11 12 13 13 13 13 13 12 13 13 12 11 10 10
6 4 3 4 5 5 7 6 3 2 4 5 4 4 3 4 6 5 7 5 4 5 5 5 4 3 8 8 7 6 9 15 17 17 18 18 17 16 16 15 16 17 16 15 14 14 14 17 18 19 20 21 21 20 20 20 20 20 19 19 19 19 19 18 18 17 16 16 16 15 14 14 14 14 14 13 12 12 11 11 11 10 10 10 10 12 13 12 12 12 12 12 12 13 12 11 10
5 4 3 4 6 7 6 5 3 2 3 5 4 3 2 3 5 7 8 5 5 5 6 5 5 7 8 8 6 6 11 17 17 17 18 18 16 16 16 15 15 15 15 14 13 14 14 16 17 17 18 19 20 21 20 18 17 17 18 19 19 19 18 18 17 17 16 16 15 14 13 13 12 13 13 12 12 12 11 10 11 11 10 10 10 11 12 11 11 11 12 12 12 13 13 11 8
5 4 4 6 6 5 4 3 2 2 4 6 4 3 3 3 5 7 8 7 7 7 7 6 5 8 8 7 5 8 13 15 16 16 17 17 17 16 15 15 14 14 14 14 13 14 15 15 16 15 17 18 18 20 19 17 17 17 18 18 17 17 16 16 17 16 16 15 14 13 12 12 12 13 13 12 12 12 12 10 10 11 11 10 10 11 12 11 11 11 12 12 13 13 11 9 6
5 3 5 6 4 4 3 3 2 3 5 5 2 5 4 5 6 8 8 8 9 10 9 7 7 8 6 8 7 9 13 14 16 16 17 17 17 16 15 14 14 13 13 13 13 14 14 14 14 13 15 17 17 19 20 19 19 19 17 16 16 15 14 14 14 14 14 13 13 13 12 12 12 13 13 12 12 13 12 11 10 11 11 10 11 12 12 11 11 11 12 13 13 10 8 7 6
4 3 5 5 3 4 4 4 3 4 4 5 5 4 4 5 5 7 7 9 10 7 6 7 8 8 5 7 7 8 12 16 17 16 17 16 16 16 15 14 13 12 11 12 13 14 14 13 13 13 13 14 15 16 17 18 20 20 17 17 16 14 15 14 13 13 13 12 12 12 11 11 10 11 12 12 13 13 12 11 10 11 11 10 11 11 11 11 11 11 13 13 12 9 7 6 4
4 2 4 5 3 5 4 4 3 5 3 7 5 4 5 3 3 6 7 11 6 4 5 6 5 4 6 8 8 10 15 19 18 17 17 16 16 16 15 14 13 11 11 11 12 13 13 13 13 13 12 12 13 12 13 17 19 18 17 18 16 15 15 14 13 13 13 12 11 11 11 10 9 9 11 12 12 12 12 11 11 11 11 11 11 11 11 10 11 12 13 13 11 9 8 7 5
4 3 4 6 5 5 4 4 4 4 2 5 2 5 8 3 1 6 4 8 2 6 6 6 3 2 4 8 10 16 21 22 20 18 18 17 17 16 15 14 13 12 11 11 11 11 11 12 13 12 11 10 11 11 10 15 18 17 18 18 17 16 15 14 13 13 12 11 11 11 10 10 9 9 10 11 11 11 11 11 11 10 10 10 11 10 10 10 11 12 12 12 11 9 9 8 7
3 4 5 5 5 5 3 4 4 2 2 3 3 7 10 6 1 3 2 7 5 9 7 4 4 2 2 8 17 23 24 23 21 20 19 18 17 16 14 13 13 12 11 11 10 10 10 10 11 11 12 10 10 12 11 12 15 16 17 18 17 16 16 15 14 13 11 10 10 10 10 9 8 9 10 11 10 10 10 10 10 10 9 10 10 10 9 10 11 11 12 12 11 10 10 9 8
4 5 6 6 5 3 1 3 2 4 3 3 7 7 10 10 2 2 3 9 9 10 8 5 6 4 7 14 21 24 24 24 22 20 19 17 16 14 13 13 12 12 12 12 10 10 9 10 10 10 11 10 9 10 11 11 12 13 14 15 16 16 16 15 14 12 10 9 9 9 9 8 7 8 9 10 10 10 10 9 9 10 9 9 9 9 8 9 11 11 11 11 11 11 9 7 7
6 4 5 6 4 2 2 3 4 5 6 7 8 8 9 9 3 1 5 10 11 11 10 9 9 8 11 17 21 23 23 23 21 19 18 16 15 14 13 13 12 12 13 12 11 10 9 9 9 9 9 10 10 9 9 10 11 11 11 12 14 15 14 14 13 12 10 9 10 10 8 8 7 6 8 10 10 9 9 9 8 9 9 8 8 9 9 9 11 12 11 10 10 9 8 7 7
6 4 6 5 3 3 2 4 5 6 8 10 9 9 9 5 2 2 5 8 12 12 11 12 13 12 14 17 18 21 22 21 20 18 17 16 16 14 14 14 13 13 13 12 12 10 10 9 9 9 8 9 10 10 9 9 10 10 10 11 11 12 12 12 12 11 10 10 10 10 9 8 6 6 7 9 9 8 9 9 8 8 8 8 8 8 9 10 11 12 12 11 10 9 9 8 8
4 5 7 4 2 4 4 4 5 7 8 10 9 9 7 4 2 5 5 7 10 11 9 10 12 15 16 17 17 20 20 20 20 18 17 16 16 15 14 14 13 13 12 12 12 11 10 10 10 9 9 9 9 9 10 10 9 8 8 9 8 9 10 10 11 10 10 10 10 9 8 7 6 6 6 7 7 7 8 9 8 8 7 8 9 8 8 10 10 11 12 12 11 11 10 8 7
3 7 9 6 4 6 5 4 5 6 7 8 8 8 6 4 4 6 7 7 4 5 6 5 9 14 16 17 17 18 18 18 18 18 17 17 16 15 14 13 12 12 12 12 12 11 10 10 10 10 9 9 8 8 8 9 10 9 8 8 7 7 8 9 9 10 10 10 9 8 7 7 7 6 6 6 6 6 6 7 8 8 8 9 9 9 9 9 10 10 11 12 12 12 11 9 7
5 7 7 7 7 7 6 6 5 6 8 9 7 6 6 7 5 4 8 4 4 4 5 5 9 13 15 17 16 16 18 17 17 17 17 16 15 15 15 14 13 13 12 11 11 10 10 10 10 10 9 8 8 7 7 8 9 9 9 9 9 8 8 8 9 9 10 10 9 9 8 7 7 7 6 7 6 6 5 6 7 7 8 9 10 10 9 9 9 9 10 10 11 11 10 10 9
8 7 4 6 7 7 8 7 6 6 9 9 7 6 7 8 3 2 7 2 6 3 6 8 11 12 14 16 14 15 16 16 17 17 16 15 15 15 15 14 14 13 11 11 11 10 10 10 10 10 9 8 7 6 6 6 7 7 8 9 9 8 8 8 8 8 9 9 10 9 9 8 7 7 7 7 6 6 6 7 7 8 9 9 9 10 9 8 7 7 8 9 9 10 10 10 10
10 8 5 6 6 7 8 7 7 8 8 7 7 8 7 5 2 2 5 4 5 3 7 11 13 13 14 14 15 15 15 16 17 17 15 14 15 15 14 14 14 12 11 12 11 11 11 10 10 9 9 8 6 5 5 4 5 6 7 8 8 8 8 7 7 7 7 8 9 9 9 8 8 7 7 7 6 6 8 9 9 9 9 9 9 9 8 7 6 7 8 9 9 9 9 9 10
6 8 6 6 7 7 6 6 7 6 5 4 5 6 2 2 3 3 3 5 6 5 8 12 14 15 14 14 14 14 15 15 16 17 14 14 15 16 15 14 14 13 12 13 11 10 10 10 10 9 8 7 6 5 4 3 4 4 5 6 6 6 7 6 6 6 6 7 7 9 10 9 9 9 7 6 6 9 11 13 13 11 9 9 8 8 7 6 6 7 8 9 9 9 10 9 9
1 7 7 8 9 6 6 6 6 5 4 3 5 3 2 3 5 3 5 5 6 7 9 11 13 14 14 14 14 13 14 15 16 16 15 15 16 17 16 14 14 14 13 13 12 10 11 10 10 9 8 7 5 5 4 3 3 4 4 4 5 5 5 5 5 5 5 5 5 7 8 9 9 8 7 7 9 12 12 13 14 12 10 10 9 7 6 5 5 6 7 9 10 10 10 10 9
3 7 8 9 8 4 4 4 4 5 3 4 6 3 3 5 3 3 6 6 7 8 10 11 12 13 14 15 15 13 13 15 17 17 17 17 17 17 17 15 15 14 13 14 11 10 11 10 9 9 8 7 5 4 4 3 3 3 3 3 3 4 4 3 3 3 3 3 3 5 6 7 8 5 8 11 12 11 9 10 13 14 13 12 10 8 6 5 5 5 6 8 10 10 9 9 9
5 6 7 7 6 4 2 2 3 4 3 2 6 5 7 7 3 6 5 5 7 8 10 11 12 12 13 14 13 12 13 15 17 16 17 17 16 17 17 16 16 14 13 13 11 11 11 9 8 8 7 6 5 4 3 3 2 3 2 2 2 3 4 3 3 2 3 3 4 4 4 5 6 4 6 10 11 9 8 9 10 13 15 12 10 9 7 6 5 5 6 8 9 10 9 9 8
6 5 6 5 6 5 4 3 5 4 2 1 6 6 7 7 6 6 5 5 7 8 9 10 11 11 12 13 12 12 13 14 15 15 16 16 14 16 17 16 15 13 12 12 11 12 11 9 8 8 6 6 5 4 3 3 3 2 2 1 1 2 2 3 3 3 3 4 5 5 3 2 2 3 5 5 5 6 6 8 9 9 13 12 10 10 8 7 7 7 8 9 10 10 10 10 9
4 4 4 4 5 6 8 3 5 6 3 2 7 6 5 7 6 5 4 5 7 7 8 9 10 10 11 11 11 11 12 13 15 15 16 15 14 15 16 15 14 12 11 12 13 12 11 10 8 7 7 6 5 5 4 3 3 3 2 2 2 2 1 2 2 3 3 2 4 4 4 3 1 3 6 4 3 5 4 6 7 7 11 12 11 12 11 9 8 8 9 9 10 11 10 10 10
4 4 4 4 4 6 10 5 2 4 5 2 7 7 4 7 5 4 3 4 6 6 7 9 9 10 10 10 10 11 11 13 15 16 15 15 14 14 15 14 14 12 10 12 13 12 10 10 8 6 7 7 6 5 5 4 4 3 3 3 2 2 1 1 1 2 4 5 4 2 1 3 2 2 4 5 4 5 5 5 6 6 9 12 12 13 13 11 10 9 8 8 9 11 10 10 9
5 5 2 3 4 4 8 7 5 4 4 4 5 7 2 6 5 4 3 4 5 6 6 8 9 10 10 9 10 10 11 12 13 14 15 14 13 13 13 13 13 11 9 11 12 11 11 11 9 8 8 7 7 6 5 5 4 4 3 3 3 2 2 2 3 3 4 5 6 6 5 4 5 5 5 4 3 4 4 5 6 6 9 11 12 13 13 12 10 8 8 8 9 9 10 9 8
5 4 1 2 3 2 5 8 6 2 3 3 3 7 3 4 3 3 3 5 5 6 6 7 7 8 8 8 9 10 11 11 11 14 16 15 13 12 12 11 12 10 9 10 11 11 11 11 10 9 8 8 7 7 6 5 5 4 3 3 3 3 3 3 3 4 4 5 5 6 6 6 6 7 6 5 4 3 3 4 6 6 8 11 13 13 12 11 9 8 8 8 10 9 8 8 6
3 4 2 3 3 3 2 5 5 3 3 3 3 7 3 2 2 3 4 5 6 6 5 5 6 7 8 9 10 11 11 10 11 14 16 15 12 12 11 10 11 10 10 11 11 11 10 10 10 9 9 8 7 7 7 6 5 4 3 3 4 4 4 4 4 4 4 4 4 5 5 4 5 6 5 4 4 4 3 3 4 5 7 9 11 11 11 10 8 10 10 10 12 10 8 8 6
2 2 3 3 4 4 2 5 6 5 3 4 3 4 2 0 2 4 5 5 6 7 5 4 5 6 8 8 9 11 11 9 11 14 15 15 13 12 12 11 11 11 12 14 13 12 12 11 10 10 10 10 9 8 8 6 5 3 3 4 4 4 4 4 4 4 4 4 4 4 3 3 2 3 4 3 3 4 4 4 3 4 5 6 7 8 9 10 10 13 16 13 11 10 9 9 7
3 3 5 5 4 4 4 5 4 4 5 3 1 4 4 2 0 4 5 5 7 8 8 7 6 7 7 9 10 11 10 8 11 13 14 15 14 12 12 11 11 12 13 15 15 14 13 12 12 11 11 12 10 9 8 7 5 4 4 4 4 5 4 5 4 4 4 5 4 4 3 3 2 2 2 3 2 3 4 4 4 4 4 4 4 5 6 8 9 13 16 13 11 9 9 9 8
4 6 6 5 6 3 5 4 3 3 5 3 2 6 6 3 0 4 6 6 8 9 9 9 8 8 7 8 10 10 9 8 10 12 13 16 15 14 13 12 13 14 15 16 15 15 15 14 13 12 12 13 12 10 9 7 5 4 4 5 5 5 5 5 5 5 5 5 5 4 4 3 3 3 3 3 3 3 3 4 4 4 4 4 3 3 4 6 7 9 10 9 10 10 9 9 9
5 5 5 5 4 3 5 5 3 1 4 3 0 6 7 3 2 4 6 7 7 7 8 8 8 9 8 8 9 9 10 9 10 11 13 16 17 15 14 14 15 16 15 16 16 15 16 15 14 13 13 13 12 11 9 7 6 5 5 5 5 5 5 5 5 6 5 5 5 5 4 3 3 4 4 5 4 3 3 3 3 3 3 5 5 5 4 5 6 6 7 7 8 9 9 9 9
5 5 6 4 2 3 3 6 5 1 2 4 3 6 7 6 5 5 6 6 4 4 6 7 7 8 8 8 8 9 11 12 12 12 12 15 17 17 17 16 17 16 16 17 17 17 17 16 15 14 14 14 12 12 9 7 8 7 6 6 6 6 6 5 6 6 5 5 6 5 5 5 5 5 5 5 5 5 5 4 4 3 4 4 5 6 6 6 5 4 5 6 7 9 8 7 7
5 5 7 4 2 4 4 2 3 2 3 3 5 7 7 7 8 7 7 6 6 6 6 6 6 7 7 8 9 9 10 11 11 12 13 14 18 19 20 19 18 18 18 18 19 19 18 18 17 15 15 14 13 13 11 9 10 10 8 8 7 7 7 6 6 6 6 5 5 5 6 6 6 6 6 6 5 5 5 6 6 5 5 5 5 6 6 5 5 4 3 3 5 8 8 6 5
5 7 9 6 3 4 4 1 3 5 5 2 4 7 4 4 7 6 6 7 8 7 6 7 6 6 7 8 9 9 10 11 11 12 13 15 18 20 20 20 20 20 20 19 20 20 19 19 18 16 16 15 14 14 13 11 10 11 11 10 9 8 7 6 6 6 6 6 6 6 6 7 6 6 6 6 5 5 6 6 6 6 6 6 5 5 6 5 4 5 5 4 3 4 5 6 6
4 6 8 8 6 5 5 4 4 6 3 2 2 7 4 3 5 5 5 7 8 8 6 5 5 6 7 8 8 9 9 10 11 12 13 14 17 18 20 21 22 22 20 19 18 19 20 19 19 18 17 16 15 16 15 13 11 11 12 11 10 9 8 7 7 7 6 6 7 6 6 6 6 6 6 6 6 6 6 6 6 5 5 5 5 5 5 5 4 5 6 5 4 3 2 2 3
1 3 6 9 7 6 6 6 5 5 3 2 5 6 6 5 4 5 6 7 8 9 7 5 4 5 5 6 6 7 8 9 9 11 13 13 15 18 20 21 22 22 20 19 19 20 21 19 20 20 18 17 17 18 17 14 12 12 12 10 9 9 8 8 8 8 7 7 7 7 6 6 6 6 6 6 7 7 7 7 6 6 6 6 6 6 6 5 5 6 6 5 4 3 3 4 4
1 2 3 6 5 5 5 6 6 3 3 5 6 5 6 7 3 5 6 8 9 9 6 5 4 4 4 4 5 6 7 8 9 10 11 13 15 18 19 19 21 21 20 20 19 21 22 20 21 21 19 18 18 20 19 15 14 13 12 11 10 9 8 8 9 8 8 8 8 7 7 7 7 6 6 6 7 7 8 8 8 7 7 6 7 7 7 7 7 6 6 6 5 5 4 3 3
2 3 4 4 4 4 5 6 6 3 5 8 5 4 5 6 4 5 6 6 6 5 4 3 3 2 1 1 3 5 6 6 8 10 10 11 14 17 18 18 20 21 21 19 18 20 21 21 22 22 20 18 19 22 21 17 15 14 13 12 11 10 9 8 8 9 8 8 8 8 7 7 7 7 7 7 8 9 9 9 9 8 8 7 8 8 8 8 8 8 7 7 7 7 6 5 4
4 6 6 6 6 5 5 5 4 4 7 6 3 4 5 6 5 4 2 1 1 1 1 1 2 2 3 3 4 5 5 6 6 8 10 11 12 14 16 17 19 20 20 19 18 20 22 22 22 21 20 19 19 23 23 19 17 16 14 14 13 12 11 10 9 9 9 9 9 8 8 7 8 8 8 8 9 10 10 10 10 9 9 8 8 8 8 8 8 8 8 8 7 7 7 7 6
5 6 6 6 5 4 5 5 4 6 7 1 4 4 5 7 4 2 3 4 3 2 1 2 4 5 6 6 7 7 7 7 6 7 7 9 11 12 14 16 17 18 19 19 19 20 21 21 21 21 22 21 20 23 24 20 18 17 16 14 14 14 13 12 10 10 10 9 9 9 8 8 8 8 8 9 10 10 10 10 10 9 9 8 8 8 8 8 8 8 8 8 8 7 7 6 6
6 7 6 6 6 5 6 6 5 6 4 3 5 3 5 7 3 4 5 4 3 1 2 3 5 6 7 7 7 6 6 7 6 5 5 6 8 11 14 15 17 18 19 20 19 19 20 20 21 22 22 21 20 22 24 22 20 19 17 15 14 13 13 12 11 10 10 9 9 9 9 8 9 9 9 10 11 10 9 9 9 8 8 8 8 8 8 8 8 8 8 9 8 8 7 7 7
8 7 6 7 6 6 7 7 6 7 2 5 4 2 5 7 1 5 4 3 3 2 1 2 4 5 6 6 7 6 6 6 6 4 3 3 5 8 11 14 15 15 17 19 18 18 19 18 20 21 21 20 20 21 22 22 21 20 18 15 14 13 13 13 11 10 11 10 9 10 9 8 9 10 10 10 12 11 9 8 8 8 9 9 9 8 8 8 8 8 8 9 8 8 8 7 7
7 6 6 7 6 6 7 6 6 7 2 4 5 3 5 5 2 5 4 4 3 2 2 2 2 3 4 5 6 6 6 6 5 5 4 1 3 5 8 10 11 11 13 15 16 17 17 18 19 20 20 20 20 21 21 22 21 20 19 17 15 13 12 13 13 11 12 11 10 10 10 9 9 10 10 11 12 12 10 9 9 9 10 9 9 9 8 7 7 7 7 7 7 7 7 6 6
5 4 7 7 5 6 5 2 3 5 4 2 4 4 4 1 4 5 5 5 5 4 3 3 3 4 4 4 5 6 7 7 6 5 5 4 3 5 7 8 8 9 11 12 13 15 16 16 17 18 18 18 20 21 21 21 21 19 19 19 18 16 14 13 13 12 13 12 12 11 11 10 10 10 11 12 13 13 11 11 10 9 10 9 9 9 8 8 7 7 7 7 6 6 6 5 5
2 5 7 3 2 6 6 2 2 1 7 6 5 6 5 3 4 6 8 7 7 6 5 4 4 5 5 5 6 7 7 8 8 7 6 6 5 5 6 6 7 8 10 11 12 13 14 15 15 16 16 16 17 20 20 20 20 18 19 21 20 18 17 15 13 13 14 14 14 13 12 12 11 11 12 14 15 14 13 12 11 10 10 9 9 8 8 8 7 7 7 7 6 6 6 5 4
4 5 3 1 1 5 6 5 3 4 8 7 6 8 8 6 4 7 10 9 9 7 6 6 5 5 6 7 7 7 8 8 8 8 8 7 7 7 7 6 5 5 6 8 10 11 12 14 14 15 16 16 16 17 18 19 20 20 19 21 21 20 19 17 15 14 15 16 16 15 13 13 14 13 14 15 16 15 14 13 12 11 11 10 9 9 8 8 8 7 7 7 6 6 6 5 5
6 4 1 2 5 6 5 6 7 7 8 7 8 10 9 8 5 7 11 11 10 9 8 7 6 6 6 6 7 8 8 7 8 9 9 8 9 10 9 7 7 6 4 5 6 6 8 10 10 11 13 14 14 14 15 17 19 20 19 18 20 20 19 18 16 15 16 16 17 17 15 15 15 15 15 16 16 16 15 15 13 12 12 11 10 9 9 9 8 8 8 7 7 6 6 6 5
5 4 4 4 5 6 6 6 6 8 8 8 9 9 7 7 5 7 11 12 11 10 9 7 6 6 5 5 6 7 8 8 8 9 9 10 11 12 11 9 10 9 7 6 6 4 3 4 6 7 8 10 11 12 12 13 15 17 16 16 17 19 20 18 16 16 16 16 17 17 17 17 16 16 16 17 18 17 17 16 15 14 13 12 11 10 9 9 8 8 8 7 8 7 7 6 5
4 6 7 6 4 4 5 7 7 7 8 8 8 10 7 2 2 4 9 11 11 10 9 7 6 6 6 6 6 6 7 8 8 9 9 10 12 13 12 11 12 12 10 9 8 7 5 3 2 3 5 6 9 10 11 12 13 15 15 16 17 18 19 18 16 16 16 16 15 16 17 17 18 18 18 18 18 18 18 17 16 15 15 14 13 11 10 9 8 8 8 8 8 8 7 6 5
5 5 7 7 7 6 7 9 8 7 8 8 8 10 6 2 3 1 6 10 10 9 9 8 7 7 7 6 6 7 7 8 8 9 9 10 12 14 14 14 14 15 14 13 12 11 8 6 4 1 2 3 5 7 9 11 12 13 15 16 17 18 18 18 17 17 17 16 15 16 17 17 17 18 20 20 20 19 19 18 17 16 16 15 14 13 12 10 10 10 9 9 9 8 7 6 5
Wind_Direction
210 239 234 243 247 242 226 228 245 194 237 257 247 254 145 135 343 279 227 222 267 94 182 295 185 172 159 221 175 120 26 25 40 320 142 102 135 136 138 139 139 140 140 139 143 148 148 152 154 156 157 157 156 155 155 153 153 151 151 152 154 157 159 161 161 161 159 159 157 153 150 148 146 143 141 138 138 139 142 144 142 143 147 145 145 143 141 144 142 140 142 139 134 135 134 131 132
240 242 225 228 220 230 213 213 260 219 227 253 238 238 97 135 233 249 249 324 348 62 140 182 169 163 113 9 171 163 61 49 55 71 95 121 135 135 141 140 137 139 139 136 141 148 149 154 156 158 159 159 158 156 156 154 153 152 152 152 154 156 157 157 157 158 157 156 153 150 148 147 146 144 143 141 142 144 145 145 146 153 157 155 151 148 149 149 145 145 146 142 140 139 137 136 136
240 242 213 207 207 230 235 207 254 254 240 258 233 131 88 225 232 304 12 16 63 83 139 148 156 154 183 186 181 186 111 74 81 89 111 139 140 139 144 140 136 137 138 136 141 146 149 156 158 161 161 160 159 157 157 156 155 154 153 153 154 155 156 157 158 159 156 154 152 150 149 149 147 147 147 146 146 146 147 147 150 156 158 160 155 152 153 151 151 151 147 145 144 141 139 140 139
231 239 220 214 204 222 230 219 249 265 254 261 255 100 88 285 346 10 95 110 97 123 144 149 152 135 268 176 144 121 101 99 97 101 128 140 137 140 143 141 136 134 136 137 141 145 151 158 159 162 163 162 161 159 159 158 157 156 155 153 153 155 157 158 160 160 156 153 152 152 152 152 151 151 150 149 148 148 150 151 154 156 156 156 153 153 154 153 154 153 148 147 147 145 142 142 143
236 226 226 241 237 224 238 241 250 254 261 276 282 79 68 41 45 76 118 124 129 172 170 182 149 128 310 42 57 117 105 103 106 119 127 121 130 140 142 142 135 133 135 135 139 144 153 157 159 163 165 165 163 161 162 160 159 158 158 155 154 155 157 158 159 158 156 154 154 155 156 156 155 155 152 152 151 151 154 155 158 158 155 152 153 154 155 155 153 152 150 150 149 147 145 145 151
215 197 212 246 268 310 251 241 239 240 257 305 296 54 68 71 76 100 125 136 160 186 190 215 173 154 154 55 38 52 83 112 127 133 128 128 137 140 141 143 136 131 130 132 138 143 153 157 160 164 167 168 165 164 164 163 162 160 160 157 156 155 156 157 158 158 159 158 159 160 160 160 160 159 158 156 154 155 156 160 164 160 156 155 157 156 156 156 153 154 152 150 147 146 148 148 152
208 192 193 224 227 244 246 244 249 246 134 314 294 51 85 87 74 94 152 166 182 179 186 215 184 156 126 113 77 60 71 113 126 132 129 136 140 139 142 143 133 128 128 130 133 140 151 156 160 165 168 170 168 168 167 166 164 163 161 159 157 157 159 159 160 162 163 164 163 164 164 164 165 164 163 161 159 159 159 164 168 163 159 159 160 158 157 156 156 157 153 151 148 148 151 148 149
217 219 195 228 217 206 245 252 252 267 100 147 281 53 78 56 14 310 205 192 187 170 172 161 192 185 97 160 127 85 110 105 117 126 127 136 140 142 143 140 131 127 128 128 130 139 149 155 160 165 168 170 171 170 170 169 167 165 163 161 160 160 162 163 165 166 168 168 166 167 167 169 170 170 168 167 164 161 161 165 168 167 163 161 161 161 159 156 160 161 156 152 148 153 156 150 147
210 227 210 237 239 222 242 250 239 259 257 230 233 213 310 316 301 290 246 218 173 185 171 150 210 210 119 134 107 109 122 113 121 126 132 137 140 144 142 140 133 128 128 127 131 137 149 157 160 164 167 171 171 173 174 172 170 168 165 164 164 165 167 168 169 171 172 170 169 169 171 173 173 175 174 172 167 162 162 164 168 169 165 161 160 163 160 158 164 164 161 152 148 159 160 150 142
203 225 236 239 246 241 237 240 222 224 246 242 234 238 276 283 281 276 253 228 180 192 151 149 214 158 134 131 112 116 121 125 128 131 139 139 137 141 139 139 133 131 131 129 132 135 148 160 161 164 168 171 171 173 176 175 172 170 169 169 169 170 172 173 173 174 174 173 172 173 175 175 175 177 177 175 171 165 164 167 169 169 166 160 158 163 161 162 168 168 163 154 153 160 157 149 140
211 205 242 248 237 244 246 237 210 211 234 244 239 236 303 295 280 272 252 233 205 194 153 182 183 130 134 128 112 112 124 135 134 134 143 141 137 137 134 134 131 132 132 130 133 135 144 158 164 165 169 173 174 173 174 173 171 174 176 175 174 174 176 176 176 175 176 178 177 177 177 176 175 176 178 178 174 168 165 170 172 171 168 163 159 159 161 165 168 167 164 160 160 157 155 154 143
231 194 217 241 242 249 265 273 243 254 241 240 214 121 26 313 271 265 251 232 210 202 186 193 164 147 147 127 117 128 139 142 134 137 143 141 139 138 133 129 129 131 134 133 132 135 141 153 163 167 170 175 177 175 170 164 170 183 183 179 179 177 179 180 180 178 177 180 180 180 180 178 176 178 180 181 179 171 167 173 175 171 170 168 163 160 164 169 168 171 171 167 163 158 157 160 151
241 221 225 239 263 268 271 281 254 264 247 223 149 85 12 308 275 263 261 250 217 209 195 171 158 171 147 119 130 144 149 143 137 144 142 140 141 139 132 128 130 131 139 139 133 135 140 148 157 167 174 175 179 178 168 162 175 187 186 182 183 181 181 185 185 182 180 181 182 182 182 180 177 179 182 186 185 176 169 174 176 172 172 173 169 167 170 172 174 179 175 167 163 162 160 158 152
244 245 252 249 259 262 260 263 237 253 230 135 90 52 333 308 297 277 262 250 225 206 166 147 169 173 132 126 146 157 152 144 146 148 144 141 140 141 135 131 133 134 143 143 136 137 142 146 150 160 169 173 178 180 173 172 181 185 185 185 185 185 184 188 189 185 187 185 183 184 185 184 182 180 182 185 186 180 173 173 177 176 175 175 176 175 176 178 180 181 174 168 170 171 166 166 161
249 236 255 257 246 241 230 248 265 261 203 112 82 11 329 320 299 279 246 241 218 126 123 145 194 193 165 179 170 158 149 147 150 146 144 142 139 141 135 131 133 136 142 141 141 141 146 145 144 152 157 167 171 172 177 182 184 180 186 188 187 191 188 188 189 190 191 189 187 186 186 187 186 185 183 183 182 181 175 173 178 179 177 176 178 180 184 187 184 181 178 177 184 185 177 185 195
244 242 240 249 246 234 196 219 244 248 150 105 66 2 335 344 251 275 257 255 218 134 178 169 190 281 186 183 151 145 146 144 146 140 140 139 136 135 132 133 133 135 140 142 143 142 150 147 143 148 150 161 163 161 173 182 184 181 185 189 189 194 194 191 192 192 189 191 192 187 188 185 186 190 187 184 182 181 176 174 177 176 178 180 179 183 188 190 188 186 188 192 198 198 192 198 208
221 238 238 240 235 232 198 208 218 273 74 87 8 1 336 344 206 271 272 248 223 167 187 148 134 4 90 133 130 140 144 142 142 142 142 140 137 136 137 138 136 138 143 144 145 145 154 152 146 146 147 155 159 161 167 174 181 183 187 189 189 194 198 198 196 193 187 189 191 188 188 181 188 195 188 187 185 180 180 180 177 173 177 183 182 183 188 192 196 195 194 202 208 209 208 208 214
216 226 234 240 231 229 242 240 278 329 328 345 343 354 339 338 318 233 212 213 201 172 171 140 129 96 97 123 130 139 146 145 147 150 148 145 143 144 145 143 145 147 147 149 150 152 155 155 154 150 146 149 152 155 159 165 173 182 189 190 192 196 199 201 198 192 184 184 188 190 191 190 198 200 190 189 188 183 185 187 181 176 177 183 186 186 191 198 204 201 196 203 211 217 214 207 209
229 237 235 242 241 242 1 304 310 304 302 320 327 339 336 331 325 224 220 198 182 177 171 165 151 126 126 132 135 143 148 151 153 155 153 152 151 150 148 146 152 152 153 155 155 158 158 157 162 158 153 151 149 148 155 163 166 174 183 185 191 195 199 201 198 196 191 191 192 188 196 208 207 205 201 190 185 184 187 191 187 184 183 182 190 197 198 200 204 201 199 204 210 215 207 202 206
226 239 240 240 254 275 291 274 280 289 304 309 314 326 327 338 347 261 238 198 187 190 175 175 169 148 144 140 141 148 153 154 155 157 156 158 157 154 152 152 157 159 159 159 159 163 159 159 164 164 163 160 155 152 158 165 167 173 177 180 187 190 195 198 197 201 202 203 201 190 195 211 209 209 210 192 181 183 187 190 191 190 193 190 191 200 203 205 204 197 203 208 202 206 204 210 216
205 220 249 262 300 275 265 255 271 289 302 303 308 312 321 7 313 266 247 203 199 202 179 180 174 153 149 146 148 154 156 156 157 160 158 160 160 158 160 159 161 161 159 162 165 167 163 163 165 166 168 170 167 161 162 163 168 177 179 181 184 185 191 195 197 200 202 209 211 204 200 202 207 210 207 194 187 190 186 181 187 190 196 203 199 200 204 208 203 190 197 204 199 207 210 211 214
227 224 253 281 282 269 272 280 287 297 296 290 294 303 328 339 264 251 242 220 205 190 159 164 170 154 150 150 153 158 159 158 160 162 160 162 161 159 163 162 159 160 164 168 168 168 168 167 165 165 167 171 175 172 170 164 164 171 179 182 180 182 190 198 203 204 206 210 212 212 204 199 206 207 199 199 196 196 188 176 185 192 198 208 207 209 209 206 205 192 192 198 201 210 213 209 207
244 229 240 261 266 272 281 286 285 289 285 281 295 313 323 297 264 235 237 233 44 70 128 132 152 150 148 151 157 161 162 161 163 165 163 162 160 158 163 163 161 165 171 172 169 167 169 169 167 165 165 168 172 175 176 172 168 167 175 179 179 183 189 200 205 208 209 206 209 207 197 201 207 205 201 204 201 195 194 190 193 197 203 209 210 215 217 212 212 208 203 202 204 207 210 213 211
243 248 239 256 265 271 272 278 279 276 277 281 295 298 286 280 282 216 225 184 59 83 138 130 136 143 147 153 162 161 162 164 163 166 165 162 161 160 163 165 167 171 174 172 169 169 170 170 168 165 165 166 169 176 174 175 176 171 177 177 176 179 184 197 201 202 207 205 209 207 201 206 207 204 202 202 203 200 199 202 204 204 207 212 215 218 222 221 220 218 212 207 205 204 204 212 217
232 255 260 260 263 261 265 274 276 272 273 277 275 271 270 278 296 224 215 143 93 112 141 138 137 146 152 157 164 161 163 165 163 166 166 164 163 161 166 170 172 177 176 173 173 171 171 168 167 165 161 161 162 169 171 172 176 181 188 184 178 178 178 186 190 190 200 206 207 207 209 210 204 202 205 201 200 206 206 205 206 206 207 211 216 222 227 229 227 218 210 204 198 201 203 208 217
212 249 261 261 262 264 276 282 276 267 262 266 257 251 238 226 222 200 171 127 118 121 135 143 145 152 156 159 164 164 165 167 165 165 165 163 165 168 174 177 178 182 177 173 173 169 166 165 164 162 159 158 156 157 163 168 177 194 198 192 190 187 181 180 183 184 188 196 200 207 214 214 207 199 196 193 197 212 216 212 208 202 205 211 214 222 227 229 228 218 209 203 194 199 209 208 213
199 256 269 269 269 274 285 281 266 249 238 237 238 233 132 180 217 174 122 133 146 140 138 147 153 155 158 160 164 167 168 170 168 165 166 167 173 179 181 182 181 180 176 171 170 164 162 164 162 159 157 156 159 158 158 165 185 201 197 196 197 184 177 174 179 191 189 185 188 203 213 222 228 209 183 185 206 219 221 217 213 206 207 211 212 215 221 225 226 219 212 207 201 203 209 207 210
271 272 275 260 254 254 259 252 236 229 206 204 224 205 147 189 212 80 108 150 166 155 149 156 160 156 159 161 164 170 172 174 172 171 176 177 180 184 184 183 180 176 173 170 166 161 161 163 159 157 160 161 166 165 155 165 188 195 189 195 188 156 155 167 176 180 178 166 173 201 209 221 237 213 178 198 216 224 224 221 218 214 213 211 211 212 213 218 221 217 209 205 202 198 198 202 209
265 271 274 252 223 194 190 184 185 206 159 174 227 201 178 180 108 77 112 160 175 171 163 162 163 158 160 163 167 176 177 176 177 179 183 184 184 183 182 180 177 173 168 166 162 160 161 163 159 159 167 170 172 172 164 169 176 175 174 182 170 140 145 167 184 176 165 150 140 172 206 225 234 206 191 213 223 231 236 234 228 222 217 211 210 214 213 214 214 203 191 194 194 191 191 195 204
254 244 261 256 208 165 111 138 165 160 104 217 238 217 178 148 93 89 128 167 180 180 172 168 165 161 163 166 173 179 177 178 179 182 184 184 183 180 179 177 176 171 162 164 164 163 164 163 163 166 172 175 177 180 176 167 159 152 147 156 137 121 146 162 176 183 200 209 186 177 188 210 233 215 222 226 221 237 254 243 235 227 217 209 207 212 212 213 215 199 189 190 188 190 192 191 198
235 223 233 241 214 131 96 114 169 149 108 226 237 238 174 125 96 100 131 176 190 187 177 172 167 164 167 168 177 179 175 180 180 179 180 180 179 177 178 176 175 171 161 166 167 167 171 168 167 173 177 180 182 186 184 167 150 147 145 139 107 81 125 159 155 151 147 196 207 214 230 231 248 255 252 253 222 232 259 240 232 227 211 204 206 209 208 210 214 205 197 191 186 192 194 194 203
219 224 199 208 219 118 102 82 69 120 114 188 237 245 176 117 93 101 138 190 201 199 179 176 174 169 171 171 179 179 173 179 178 175 175 177 176 175 179 178 176 172 164 165 167 170 175 174 174 179 182 183 185 187 183 167 148 148 139 120 102 83 85 107 112 129 112 106 123 136 194 209 197 179 223 235 219 217 233 227 222 221 204 199 206 210 208 208 211 208 205 200 192 197 200 199 208
203 238 195 186 219 151 128 104 68 85 126 174 234 258 211 110 96 103 153 203 205 208 184 179 182 175 179 181 181 180 172 173 176 175 174 177 178 176 180 182 180 176 168 167 171 174 176 179 182 182 185 185 185 185 178 166 151 148 134 115 106 91 92 97 95 111 114 109 115 116 108 117 137 135 155 181 175 189 209 212 210 209 201 200 208 210 210 211 210 209 209 209 203 204 210 207 210
185 227 194 171 239 218 148 128 96 71 205 172 204 260 269 100 118 134 169 208 214 214 192 182 187 182 187 190 187 184 178 175 176 176 177 180 180 177 179 181 181 177 173 173 176 181 180 182 186 184 185 183 182 181 171 160 149 143 135 123 117 108 103 99 100 105 107 110 114 120 117 117 137 141 148 156 147 154 180 196 199 198 197 204 210 210 211 212 210 212 212 216 216 211 213 214 213
188 206 204 177 201 240 184 121 76 27 235 185 191 239 244 106 191 184 175 203 219 217 202 194 195 193 195 197 197 194 186 179 177 177 177 180 177 176 180 180 180 179 180 183 183 186 185 184 186 182 179 178 178 177 167 159 156 153 146 141 133 126 120 109 107 107 100 106 113 116 121 129 143 139 135 137 136 146 161 176 182 189 195 203 212 213 214 213 208 212 215 220 223 221 223 229 233
293 243 255 222 192 213 152 80 49 16 269 217 208 248 258 216 189 179 180 199 220 218 205 208 207 204 204 203 205 201 194 181 172 174 174 178 178 176 181 182 182 185 190 194 193 192 190 188 185 181 180 178 174 175 174 172 173 167 159 156 146 132 123 114 106 103 96 94 101 109 119 132 142 131 130 130 134 152 162 156 160 188 190 193 210 212 213 213 205 211 218 220 222 226 227 231 238
284 248 243 241 233 211 127 88 59 13 293 221 162 280 262 273 136 161 182 199 217 218 210 214 215 215 215 212 211 205 198 177 164 169 171 179 183 177 179 183 182 185 194 197 196 195 194 193 187 183 184 181 178 180 181 180 177 170 166 160 148 137 130 125 115 102 97 95 95 97 101 108 111 108 124 139 149 160 159 158 170 189 181 179 205 204 202 202 200 213 221 221 218 221 223 226 230
243 238 232 225 232 209 107 91 82 32 294 215 145 268 247 234 233 152 172 204 218 219 215 215 216 221 226 223 220 212 202 177 163 168 173 181 186 180 180 184 185 188 193 194 194 194 193 193 190 187 185 183 183 184 183 180 173 166 163 155 143 136 128 124 120 111 105 101 96 92 88 85 89 89 94 113 134 157 168 172 177 183 175 163 158 160 176 185 193 207 211 210 208 213 222 220 215
227 230 234 228 220 193 118 123 131 65 287 255 184 274 257 236 238 177 181 206 214 219 223 222 220 223 228 229 227 220 209 193 179 177 178 185 189 185 184 188 191 192 191 191 191 190 189 191 192 190 187 184 185 187 187 179 168 157 150 147 136 129 122 109 107 110 111 106 99 91 87 84 90 94 92 94 101 120 149 161 158 155 150 141 131 127 132 154 180 197 197 195 191 197 206 201 198
222 224 231 225 175 225 196 143 146 135 292 294 302 278 266 240 225 207 191 197 193 206 228 234 235 234 236 239 236 227 217 207 197 189 182 186 190 189 191 192 190 190 189 188 188 188 187 190 192 190 187 185 186 189 187 174 168 160 147 142 132 126 125 119 114 115 113 109 102 92 88 92 100 100 95 97 96 101 113 117 112 106 107 111 113 112 106 117 143 176 195 197 190 190 189 189 201
207 226 244 243 165 243 270 117 154 195 190 268 281 263 255 230 221 212 180 183 198 200 214 224 232 239 243 249 245 238 232 223 213 200 189 188 192 194 196 193 187 188 189 188 188 187 187 188 190 189 185 186 188 189 185 175 172 165 153 150 144 135 134 138 136 130 126 120 110 97 94 101 104 101 96 96 100 103 108 110 107 100 95 91 91 91 85 93 114 125 145 170 190 191 179 170 182
202 209 233 251 237 229 258 251 237 240 202 179 287 270 251 196 216 213 169 182 199 195 205 213 213 220 229 238 240 240 239 236 229 216 201 195 196 195 196 193 189 190 192 189 188 188 187 187 189 187 184 186 188 190 189 182 178 171 163 163 160 154 151 152 148 140 138 129 118 110 106 107 105 101 97 94 98 106 112 117 117 110 102 98 94 93 87 88 94 89 83 81 107 163 179 174 163
225 186 206 225 235 221 228 232 236 258 246 128 270 275 270 194 202 183 169 196 193 177 184 201 206 211 220 229 232 235 236 236 236 229 218 207 199 196 195 193 192 193 191 187 186 187 186 185 187 187 184 187 188 190 193 188 185 182 176 174 167 160 154 148 144 139 138 131 124 122 117 115 112 106 101 98 98 104 110 116 119 119 117 114 108 105 100 94 90 77 70 71 82 88 86 106 118
261 124 189 205 212 210 217 231 238 269 304 199 218 256 275 254 213 153 171 210 198 177 166 168 191 208 220 233 236 239 242 240 238 234 229 220 209 202 198 194 194 193 187 183 184 185 185 185 188 189 187 187 188 192 194 190 191 189 184 180 170 163 152 144 146 142 138 135 130 129 126 124 119 113 107 104 103 105 107 109 111 111 112 113 109 106 100 94 92 85 79 78 83 83 74 64 53
46 78 194 200 205 209 218 242 251 262 290 254 217 216 257 256 215 159 185 217 213 191 168 156 168 185 209 238 256 265 265 261 254 245 237 228 218 211 204 197 194 191 186 185 185 183 183 184 188 191 190 188 189 194 195 193 194 193 189 185 173 164 154 148 153 150 146 143 137 133 131 128 124 118 113 109 108 110 110 108 107 106 102 100 100 100 99 95 93 90 86 86 87 88 88 84 74
93 140 174 174 190 209 226 251 262 234 252 267 231 189 258 266 223 191 194 217 219 188 164 151 139 148 178 266 289 286 280 272 264 257 251 237 226 217 208 199 191 188 186 185 183 181 182 184 189 192 192 189 190 196 197 195 196 196 194 190 179 169 162 159 161 157 155 154 145 141 139 137 134 128 122 118 117 116 115 113 110 108 104 99 98 100 101 100 98 95 93 93 94 93 92 93 93
145 178 188 188 194 207 225 245 270 257 249 257 194 177 256 272 239 211 181 59 17 72 166 105 55 14 360 355 330 319 311 298 280 267 258 243 230 219 208 197 187 183 181 180 181 182 182 185 189 190 192 191 192 196 197 196 198 199 198 194 185 176 170 169 171 167 166 165 158 152 149 147 143 139 134 128 128 126 121 118 116 114 111 108 106 105 105 105 103 102 100 98 97 98 99 100 97
191 209 219 219 211 214 235 228 221 251 255 201 119 166 233 254 245 167 102 71 48 355 310 349 344 337 348 345 336 336 329 318 304 285 266 239 220 205 199 194 185 180 178 179 182 182 183 186 187 188 193 194 192 194 197 198 199 202 202 199 191 184 178 177 180 179 176 173 169 163 157 156 153 151 147 141 141 138 131 126 122 119 117 116 114 113 112 113 112 111 109 107 106 106 106 107 104
215 228 230 236 236 227 242 241 229 247 248 115 117 171 225 250 249 114 112 96 76 33 338 338 331 334 339 337 338 339 335 333 322 303 282 238 211 193 190 190 187 185 182 183 183 182 184 187 187 190 195 194 192 193 196 198 201 204 205 203 197 191 186 185 186 186 186 184 180 173 168 168 166 164 162 157 155 151 143 138 133 128 125 123 121 119 118 118 118 117 116 115 113 112 114 113 112
215 230 232 240 248 243 245 246 248 253 221 113 127 188 237 247 208 92 100 90 81 86 31 355 341 340 338 339 346 350 355 356 342 332 325 238 202 190 189 188 188 189 186 184 183 182 184 186 189 193 195 194 193 194 196 199 204 206 208 207 203 197 193 190 191 192 192 193 189 183 181 180 177 176 173 167 165 162 156 150 143 136 132 129 126 123 121 120 119 118 118 118 115 114 114 113 112
222 242 247 249 254 256 260 259 259 262 229 124 140 188 247 245 120 86 97 108 109 114 93 64 16 357 353 354 1 5 14 16 7 12 26 50 160 169 177 178 180 185 183 182 182 183 185 186 190 195 195 194 193 194 198 201 205 207 210 211 208 204 200 197 198 199 196 197 195 189 188 189 186 182 178 173 171 170 165 157 150 143 140 137 134 130 126 124 123 119 117 117 113 112 114 110 107
220 237 247 254 261 257 265 288 309 304 288 212 184 220 256 205 120 119 133 137 133 127 116 107 74 50 34 24 22 20 24 27 24 32 44 55 108 139 150 158 165 172 175 178 181 184 187 188 192 196 196 194 193 196 199 202 206 208 211 214 213 209 207 203 201 199 197 199 199 196 194 193 190 185 180 177 176 175 171 164 159 154 150 145 142 138 135 132 130 125 122 121 117 116 118 113 107
203 229 243 255 299 269 261 241 98 306 272 259 234 241 242 198 166 153 152 152 146 142 133 113 85 71 62 44 30 26 31 33 33 41 49 55 79 105 121 141 158 169 172 176 182 185 188 191 194 195 195 194 194 198 201 203 207 210 213 217 218 216 214 212 205 198 199 204 205 203 201 195 190 185 180 179 179 180 177 172 168 164 160 155 150 147 144 141 137 132 129 127 126 125 123 118 113
252 243 242 158 241 254 251 255 234 230 256 257 233 238 243 244 214 155 162 170 160 153 140 122 106 88 73 55 38 32 34 35 43 52 53 54 61 71 85 106 129 153 167 176 183 186 190 195 196 195 197 198 199 201 203 205 208 212 216 219 221 222 221 219 214 206 205 209 209 206 204 199 192 187 182 181 181 181 181 178 176 173 169 165 160 156 152 149 144 140 136 134 133 132 127 120 113
265 288 298 226 249 243 226 245 254 248 257 258 241 239 243 252 229 162 176 183 166 156 147 135 119 94 74 58 43 37 35 34 44 53 53 53 55 60 68 78 90 103 119 141 162 178 190 199 203 203 205 207 207 206 207 208 211 216 219 221 222 224 226 225 221 216 211 211 211 208 205 202 197 191 186 184 184 184 184 183 182 180 176 172 169 164 161 158 153 149 145 142 141 140 134 126 118
227 261 245 238 268 271 252 250 258 261 263 263 259 252 246 255 245 194 191 183 168 161 151 137 114 89 71 57 43 36 39 37 42 53 58 59 59 60 63 68 77 83 88 102 116 131 161 191 205 211 215 216 217 215 213 213 216 221 225 225 225 226 229 229 226 223 219 216 213 209 206 205 202 197 192 189 189 189 188 187 186 185 182 179 176 172 170 167 163 159 155 150 147 146 143 136 132
221 234 232 227 234 260 267 256 250 259 265 264 266 264 259 283 315 228 194 171 161 159 148 133 114 95 78 64 50 42 45 42 44 55 61 66 69 70 69 69 72 72 71 79 89 93 97 112 172 211 220 226 227 226 225 225 223 227 231 231 232 233 234 233 230 229 228 224 218 212 209 207 204 202 197 194 194 194 192 191 190 189 187 185 182 179 178 176 173 167 160 155 152 151 149 145 143
290 269 253 249 245 247 256 253 244 246 261 266 267 270 274 41 32 259 169 155 152 150 142 131 119 106 93 78 66 59 55 51 52 56 61 67 71 75 77 76 76 75 71 68 70 73 74 74 79 115 190 221 239 236 237 240 235 233 235 237 239 241 241 239 236 234 233 230 225 219 213 209 205 204 201 199 199 197 196 195 193 192 191 190 188 185 183 184 180 174 166 161 161 160 157 152 152